H1 CPF 2 NER 2025 9 9 9 252 01 glonass131 H2 1301901 9131 39155 2025 9 9 0 0 0 2025 9 12 23 45 0 900 1 1 0 0 0 1 H9 10 0 60927 0.00000 0 -6146019.282 -18383832.295 16577608.377 10 0 60927 900.00000 0 -6184107.647 -20281984.084 14162967.824 10 0 60927 1800.00000 0 -6356773.603 -21858627.949 11472927.567 10 0 60927 2700.00000 0 -6616475.105 -23074913.057 8559602.929 10 0 60927 3600.00000 0 -6910032.524 -23904052.370 5479556.521 10 0 60927 4500.00000 0 -7181089.311 -24332338.538 2292701.183 10 0 60927 5400.00000 0 -7372723.223 -24359626.846 -938871.408 10 0 60927 6300.00000 0 -7430096.169 -23999262.613 -4152113.041 10 0 60927 7200.00000 0 -7303028.151 -23277454.321 -7284266.916 10 0 60927 8100.00000 0 -6948383.365 -22232117.784 -10274114.951 10 0 60927 9000.00000 0 -6332164.074 -20911239.819 -13063197.785 10 0 60927 9900.00000 0 -5431220.305 -19370831.087 -15596981.109 10 0 60927 10800.00000 0 -4234499.905 -17672555.795 -17825943.163 10 0 60927 11700.00000 0 -2743783.611 -15881140.130 -19706560.072 10 0 60927 12600.00000 0 -973872.257 -14061670.880 -21202168.113 10 0 60927 13500.00000 0 1047782.815 -12276900.155 -22283685.049 10 0 60927 14400.00000 0 3281990.833 -10584671.455 -22930176.082 10 0 60927 15300.00000 0 5679235.423 -9035576.525 -23129253.574 10 0 60927 16200.00000 0 8181530.911 -7670941.846 -22877303.591 10 0 60927 17100.00000 0 10724642.120 -6521228.765 -22179536.102 10 0 60927 18000.00000 0 13240573.438 -5604912.997 -21049859.501 10 0 60927 18900.00000 0 15660222.048 -4927888.263 -19510583.706 10 0 60927 19800.00000 0 17916083.830 -4483416.148 -17591959.543 10 0 60927 20700.00000 0 19944898.818 -4252621.000 -15331565.259 10 0 60927 21600.00000 0 21690126.333 -4205505.619 -12773553.828 10 0 60927 22500.00000 0 23104147.760 -4302441.753 -9967777.167 10 0 60927 23400.00000 0 24150106.790 -4496069.837 -6968805.521 10 0 60927 24300.00000 0 24803312.696 -4733525.776 -3834861.889 10 0 60927 25200.00000 0 25052150.671 -4958899.499 -626692.575 10 0 60927 26100.00000 0 24898463.932 -5115821.049 2593604.167 10 0 60927 27000.00000 0 24357394.243 -5150065.356 5763769.153 10 0 60927 27900.00000 0 23456689.692 -5012066.710 8822570.799 10 0 60927 28800.00000 0 22235510.259 -4659238.277 11710969.362 10 0 60927 29700.00000 0 20742781.919 -4058000.440 14373236.048 10 0 60927 30600.00000 0 19035168.034 -3185434.060 16758007.208 10 0 60927 31500.00000 0 17174741.929 -2030490.181 18819255.238 10 0 60927 32400.00000 0 15226456.243 -594705.870 20517159.410 10 0 60927 33300.00000 0 13255512.483 1107604.203 21818861.650 10 0 60927 34200.00000 0 11324738.098 3049689.684 22699094.103 10 0 60927 35100.00000 0 9492077.900 5193227.790 23140667.362 10 0 60927 36000.00000 0 7808302.158 7489674.744 23134810.340 10 0 60927 36900.00000 0 6315025.171 9882052.430 22681354.877 10 0 60927 37800.00000 0 5043115.843 12307099.476 21788760.581 10 0 60927 38700.00000 0 4011566.277 14697700.767 20473977.758 10 0 60927 39600.00000 0 3226866.114 16985497.313 18762148.958 10 0 60927 40500.00000 0 2682909.912 19103570.192 16686152.382 10 0 60927 41400.00000 0 2361443.029 20989088.157 14285993.352 10 0 60927 42300.00000 0 2233029.151 22585808.837 11608053.091 10 0 60927 43200.00000 0 2258500.481 23846328.404 8704207.156 10 0 60927 44100.00000 0 2390830.864 24733984.031 5630828.962 10 0 60927 45000.00000 0 2577353.533 25224327.155 2447696.816 10 0 60927 45900.00000 0 2762229.642 25306103.133 -783174.464 10 0 60927 46800.00000 0 2889062.120 24981693.437 -3998753.989 10 0 60927 47700.00000 0 2903542.323 24266999.472 -7136242.123 10 0 60927 48600.00000 0 2756014.704 23190771.153 -10134318.421 10 0 60927 49500.00000 0 2403847.779 21793407.580 -12934363.537 10 0 60927 50400.00000 0 1813507.647 20125280.275 -15481628.700 10 0 60927 51300.00000 0 962243.083 18244650.437 -17726327.531 10 0 60927 52200.00000 0 -160691.832 16215269.373 -19624626.756 10 0 60927 53100.00000 0 -1553331.404 14103765.071 -21139514.805 10 0 60927 54000.00000 0 -3200839.516 11976926.926 -22241530.253 10 0 60927 54900.00000 0 -5075905.643 9899004.620 -22909335.493 10 0 60927 55800.00000 0 -7139678.857 7929136.057 -23130124.623 10 0 60927 56700.00000 0 -9343199.818 6119012.988 -22899858.399 10 0 60927 57600.00000 0 -11629269.497 4510882.081 -22223322.940 10 0 60927 58500.00000 0 -13934674.942 3135964.146 -21114012.637 10 0 60927 59400.00000 0 -16192677.571 2013355.784 -19593841.401 10 0 60927 60300.00000 0 -18335658.914 1149456.754 -17692689.763 10 0 60927 61200.00000 0 -20297812.531 537943.753 -15447798.532 10 0 60927 62100.00000 0 -22017769.669 160288.108 -12903022.535 10 0 60927 63000.00000 0 -23441049.548 -13207.973 -10107960.436 10 0 60927 63900.00000 0 -24522233.165 -21903.483 -7116978.788 10 0 60927 64800.00000 0 -25226771.600 87094.727 -3988150.094 10 0 60927 65700.00000 0 -25532355.482 261168.065 -782125.951 10 0 60927 66600.00000 0 -25429790.787 444649.646 2439032.831 10 0 60927 67500.00000 0 -24923346.789 581410.820 5613046.848 10 0 60927 68400.00000 0 -24030563.769 617462.144 8678607.310 10 0 60927 69300.00000 0 -22781530.189 503460.179 11576541.993 10 0 60927 70200.00000 0 -21217660.531 197015.889 14250937.030 10 0 60927 71100.00000 0 -19390025.046 -335290.988 16650194.700 10 0 60927 72000.00000 0 -17357300.526 -1116274.999 18728008.770 10 0 60927 72900.00000 0 -15183426.145 -2156953.319 20444240.521 10 0 60927 73800.00000 0 -12935060.032 -3455849.171 21765680.401 10 0 60927 74700.00000 0 -10678940.049 -4998820.148 22666682.052 10 0 60927 75600.00000 0 -8479255.974 -6759420.130 23129657.498 10 0 60927 76500.00000 0 -6395139.868 -8699782.071 23145424.357 10 0 60927 77400.00000 0 -4478376.905 -10771987.788 22713398.082 10 0 60927 78300.00000 0 -2771430.311 -12919871.132 21841624.586 10 0 60927 79200.00000 0 -1305861.803 -15081182.872 20546650.999 10 0 60927 80100.00000 0 -101213.290 -17190030.377 18853234.935 10 0 60927 81000.00000 0 835602.836 -19179493.086 16793895.389 10 0 60927 81900.00000 0 1510378.113 -20984306.544 14408311.307 10 0 60927 82800.00000 0 1941142.409 -22543503.781 11742576.940 10 0 60927 83700.00000 0 2157176.185 -23802903.363 8848326.174 10 0 60927 84600.00000 0 2197540.727 -24717338.748 5781741.135 10 0 60927 85500.00000 0 2109187.301 -25252533.350 2602463.343 10 0 60928 0.00000 0 1944724.832 -25386539.955 -627571.327 10 0 60928 900.00000 0 1759940.957 -25110681.099 -3845352.371 10 0 60928 1800.00000 0 1611183.066 -24429947.918 -6988039.591 10 0 60928 2700.00000 0 1552712.186 -23362838.613 -9994212.811 10 0 60928 3600.00000 0 1634144.846 -21940641.388 -12805095.382 10 0 60928 4500.00000 0 1898094.392 -20206191.429 -15365726.750 10 0 60928 5400.00000 0 2378114.837 -18212154.350 -17626058.522 10 0 60928 6300.00000 0 3097037.170 -16018909.247 -19541950.476 10 0 60928 7200.00000 0 4065770.873 -13692121.943 -21076045.385 10 0 60928 8100.00000 0 5282622.942 -11300112.265 -22198504.470 10 0 60928 9000.00000 0 6733164.036 -8911127.753 -22887588.733 10 0 60928 9900.00000 0 8390647.496 -6590639.779 -23130074.954 10 0 60928 10800.00000 0 10216962.998 -4398776.421 -22921499.041 10 0 60928 11700.00000 0 12164083.702 -2387999.838 -22266223.232 10 0 60928 12600.00000 0 14175944.651 -601124.757 -21177327.431 10 0 60928 13500.00000 0 16190672.190 930240.562 -19676328.604 10 0 60928 14400.00000 0 18143069.616 2186768.095 -17792735.612 10 0 60928 15300.00000 0 19967253.919 3161956.643 -15563450.027 10 0 60928 16200.00000 0 21599332.751 3862131.968 -13032026.310 10 0 60928 17100.00000 0 22980009.682 4305904.213 -10247807.259 10 0 60928 18000.00000 0 24057009.413 4523109.051 -7264952.763 10 0 60928 18900.00000 0 24787222.808 4553280.328 -4141381.591 10 0 60928 19800.00000 0 25138483.752 4443721.117 -937647.216 10 0 60928 20700.00000 0 25090905.586 4247256.215 2284230.450 10 0 60928 21600.00000 0 24637723.409 4019761.780 5461955.159 10 0 60928 22500.00000 0 23785609.042 3817576.290 8534144.093 10 0 60928 23400.00000 0 22554447.190 3694901.299 11441495.425 10 0 60928 24300.00000 0 20976583.246 3701300.278 14127912.736 10 0 60928 25200.00000 0 19095574.525 3879399.297 16541566.369 10 0 60928 26100.00000 0 16964496.616 4262884.753 18635873.196 10 0 60928 27000.00000 0 14643874.223 4874880.953 20370377.853 10 0 60928 27900.00000 0 12199320.732 5726774.948 21711520.281 10 0 60928 28800.00000 0 9698982.276 6817537.829 22633276.223 10 0 60928 29700.00000 0 7210889.819 8133571.769 23117659.372 10 0 60928 30600.00000 0 4800326.481 9649090.951 23155075.919 10 0 60928 31500.00000 0 2527316.998 11327022.937 22744524.402 10 0 60928 32400.00000 0 444341.568 13120395.948 21893636.112 10 0 60928 33300.00000 0 -1405632.270 14974157.518 20618553.686 10 0 60928 34200.00000 0 -2990718.352 16827351.959 18943648.110 10 0 60928 35100.00000 0 -4291215.709 18615568.689 16901077.161 10 0 60928 36000.00000 0 -5300200.553 20273561.420 14530191.133 10 0 60928 36900.00000 0 -6023580.266 21737930.012 11876794.830 10 0 60928 37800.00000 0 -6479605.586 22949753.008 8992277.869 10 0 60928 38700.00000 0 -6697859.905 23857059.704 5932628.405 10 0 60928 39600.00000 0 -6717766.985 24417036.199 2757348.465 10 0 60928 40500.00000 0 -6586679.420 24597870.199 -471708.291 10 0 60928 41400.00000 0 -6357628.716 24380153.982 -3691553.219 10 0 60928 42300.00000 0 -6086833.116 23757783.359 -6839308.660 10 0 60928 43200.00000 0 -5831070.498 22738311.941 -9853457.086 10 0 60928 44100.00000 0 -5645030.065 21342743.494 -12675066.712 10 0 60928 45000.00000 0 -5578757.972 19604769.632 -15248967.135 10 0 60928 45900.00000 0 -5675308.123 17569484.321 -17524849.629 10 0 60928 46800.00000 0 -5968700.579 15291629.546 -19458268.446 10 0 60928 47700.00000 0 -6482276.433 12833446.884 -21011521.877 10 0 60928 48600.00000 0 -7227520.589 10262226.749 -22154394.732 10 0 60928 49500.00000 0 -8203403.277 7647659.843 -22864747.302 10 0 60928 50400.00000 0 -9396268.362 5059103.507 -23128939.451 10 0 60928 51300.00000 0 -10780272.721 2562878.687 -22942082.324 10 0 60928 52200.00000 0 -12318357.124 219711.229 -22308113.996 10 0 60928 53100.00000 0 -13963706.305 -1917575.679 -21239699.178 10 0 60928 54000.00000 0 -15661635.194 -3806022.533 -19757956.760 10 0 60928 54900.00000 0 -17351820.473 -5414068.039 -17892022.375 10 0 60928 55800.00000 0 -18970782.424 -6722595.702 -15678456.415 10 0 60928 56700.00000 0 -20454511.991 -7725452.054 -13160510.725 10 0 60928 57600.00000 0 -21741132.513 -8429418.577 -10387269.757 10 0 60928 58500.00000 0 -22773484.708 -8853642.240 -7412684.118 10 0 60928 59400.00000 0 -23501527.388 -9028552.167 -4294516.151 10 0 60928 60300.00000 0 -23884454.615 -8994311.042 -1093218.499 10 0 60928 61200.00000 0 -23892442.324 -8798868.749 2129232.521 10 0 60928 62100.00000 0 -23507953.169 -8495701.730 5310526.472 10 0 60928 63000.00000 0 -22726546.876 -8141333.899 8389209.100 10 0 60928 63900.00000 0 -21557163.837 -7792743.298 11305851.478 10 0 60928 64800.00000 0 -20021871.285 -7504762.802 14004176.994 10 0 60928 65700.00000 0 -18155083.150 -7327582.825 16432126.219 10 0 60928 66600.00000 0 -16002285.949 -7304459.422 18542841.035 10 0 60928 67500.00000 0 -13618322.753 -7469722.496 20295551.016 10 0 60928 68400.00000 0 -11065304.867 -7847166.466 21656346.808 10 0 60928 69300.00000 0 -8410235.691 -8448890.248 22598827.071 10 0 60928 70200.00000 0 -5722442.668 -9274635.262 23104607.571 10 0 60928 71100.00000 0 -3070920.945 -10311650.185 23163683.076 10 0 60928 72000.00000 0 -521696.209 -11535089.934 22774634.854 10 0 60928 72900.00000 0 1864686.315 -12908934.765 21944678.894 10 0 60928 73800.00000 0 4035444.286 -14387394.118 20689552.355 10 0 60928 74700.00000 0 5947518.284 -15916739.732 19033238.356 10 0 60928 75600.00000 0 7569128.164 -17437494.456 17007531.951 10 0 60928 76500.00000 0 8880860.385 -18886887.718 14651453.031 10 0 60928 77400.00000 0 9876239.740 -20201476.620 12010514.961 10 0 60928 78300.00000 0 10561760.063 -21319823.491 9135860.848 10 0 60928 79200.00000 0 10956370.998 -22185117.288 6083282.448 10 0 60928 80100.00000 0 11090440.924 -22747627.247 2912139.701 10 0 60928 81000.00000 0 11004238.733 -22966883.348 -315798.354 10 0 60928 81900.00000 0 10745998.191 -22813488.847 -3537568.232 10 0 60928 82800.00000 0 10369647.154 -22270485.275 -6690257.234 10 0 60928 83700.00000 0 9932299.018 -21334209.185 -9712253.110 10 0 60928 84600.00000 0 9491614.644 -20014601.705 -12544471.471 10 0 60928 85500.00000 0 9103149.084 -18334955.690 -15131534.456 10 0 60929 0.00000 0 8817798.401 -16331109.995 -17422875.022 10 0 60929 900.00000 0 8679457.428 -14050123.195 -19373744.290 10 0 60929 1800.00000 0 8722990.494 -11548485.669 -20946097.528 10 0 60929 2700.00000 0 8972602.481 -8889942.625 -22109344.459 10 0 60929 3600.00000 0 9440680.682 -6143023.428 -22840945.589 10 0 60929 4500.00000 0 10127156.676 -3378381.344 -23126844.358 10 0 60929 5400.00000 0 11019414.828 -666056.590 -22961727.204 10 0 60929 6300.00000 0 12092750.218 1927221.969 -22349107.664 10 0 60929 7200.00000 0 13311355.178 4340583.451 -21301234.482 10 0 60929 8100.00000 0 14629791.023 6521304.121 -19838827.304 10 0 60929 9000.00000 0 15994881.172 8426744.985 -17990647.013 10 0 60929 9900.00000 0 17347944.265 10025859.094 -15792910.938 10 0 60929 10800.00000 0 18627272.007 11300208.588 -13288566.080 10 0 60929 11700.00000 0 19770746.735 12244452.438 -10526435.991 10 0 60929 12600.00000 0 20718488.431 12866288.162 -7560259.142 10 0 60929 13500.00000 0 21415420.334 13185853.707 -4447638.371 10 0 60929 14400.00000 0 21813646.343 13234617.957 -1248922.254 10 0 60929 15300.00000 0 21874541.779 13053809.283 1973959.761 10 0 60929 16200.00000 0 21570471.471 12692450.259 5158686.258 10 0 60929 17100.00000 0 20886064.873 12205082.365 8243734.576 10 0 60929 18000.00000 0 19818996.404 11649276.686 11169551.457 10 0 60929 18900.00000 0 18380239.597 11083034.796 13879682.546 10 0 60929 19800.00000 0 16593785.059 10562187.906 16321840.738 10 0 60929 20700.00000 0 14495833.996 10137901.996 18448894.651 10 0 60929 21600.00000 0 12133500.057 9854391.911 20219760.167 10 0 60929 22500.00000 0 9563071.927 9746938.718 21600179.651 10 0 60929 23400.00000 0 6847906.605 9840292.236 22563375.321 10 0 60929 24300.00000 0 4056038.085 10147525.085 23090565.287 10 0 60929 25200.00000 0 1257597.554 10669386.471 23171332.771 10 0 60929 26100.00000 0 -1477850.904 11394183.806 22803841.222 10 0 60929 27000.00000 0 -4083951.410 12298199.022 21994890.332 10 0 60929 27900.00000 0 -6500066.897 13346624.664 20759810.344 10 0 60929 28800.00000 0 -8673556.485 14494983.498 19122194.626 10 0 60929 29700.00000 0 -10561725.667 15690975.178 17113473.251 10 0 60929 30600.00000 0 -12133368.014 16876675.283 14772333.132 10 0 60929 31500.00000 0 -13369833.168 17990996.624 12143993.401 10 0 60929 32400.00000 0 -14265575.108 18972310.693 9279347.755 10 0 60929 33300.00000 0 -14828155.988 19761119.307 6233988.602 10 0 60929 34200.00000 0 -15077703.727 20302663.142 3067130.901 10 0 60929 35100.00000 0 -15045844.745 20549355.388 -159543.733 10 0 60929 36000.00000 0 -14774156.074 20462935.290 -3383099.649 10 0 60929 36900.00000 0 -14312202.086 20016247.491 -6540591.621 10 0 60929 37800.00000 0 -13715239.618 19194568.767 -9570315.000 10 0 60929 38700.00000 0 -13041690.148 17996422.953 -12413034.888 10 0 60929 39600.00000 0 -12350488.218 16433847.006 -15013167.802 10 0 60929 40500.00000 0 -11698420.994 14532095.008 -17319890.310 10 0 60929 41400.00000 0 -11137574.323 12328791.444 -19288150.816 10 0 60929 42300.00000 0 -10712995.906 9872569.133 -20879562.957 10 0 60929 43200.00000 0 -10460676.537 7221249.547 -22063162.021 10 0 60929 44100.00000 0 -10405936.128 4439642.921 -22816009.106 10 0 60929 45000.00000 0 -10562283.305 1597061.778 -23123631.324 10 0 60929 45900.00000 0 -10930796.483 -1235346.695 -22980290.194 10 0 60929 46800.00000 0 -11500051.505 -3987336.753 -22389074.197 10 0 60929 47700.00000 0 -12246597.271 -6592253.740 -21361815.245 10 0 60929 48600.00000 0 -13135957.262 -8989565.097 -19918832.528 10 0 60929 49500.00000 0 -14124112.532 -11127127.985 -18088510.613 10 0 60929 50400.00000 0 -15159401.565 -12963100.586 -15906721.894 10 0 60929 51300.00000 0 -16184755.114 -14467419.768 -13416106.393 10 0 60929 52200.00000 0 -17140170.551 -15622786.477 -10665224.424 10 0 60929 53100.00000 0 -17965320.757 -16425121.134 -7707599.866 10 0 60929 54000.00000 0 -18602187.589 -16883473.600 -4600673.508 10 0 60929 54900.00000 0 -18997609.611 -17019395.008 -1404687.292 10 0 60929 55800.00000 0 -19105637.920 -16865800.856 1818478.778 10 0 60929 56700.00000 0 -18889602.483 -16465375.554 5006494.868 10 0 60929 57600.00000 0 -18323803.764 -15868587.085 8097772.449 10 0 60929 58500.00000 0 -17394760.244 -15131395.953 11032636.409 10 0 60929 59400.00000 0 -16101960.855 -14312754.572 13754457.030 10 0 60929 60300.00000 0 -14458091.614 -13472001.233 16210721.748 10 0 60929 61200.00000 0 -12488727.178 -12666256.604 18354027.923 10 0 60929 62100.00000 0 -10231499.553 -11947930.162 20142979.447 10 0 60929 63000.00000 0 -7734777.158 -11362439.208 21542971.756 10 0 60929 63900.00000 0 -5055907.070 -10946234.356 22526851.602 10 0 60929 64800.00000 0 -2259090.700 -10725212.989 23075440.008 10 0 60929 65700.00000 0 587022.077 -10713586.536 23177908.815 10 0 60929 66600.00000 0 3411923.786 -10913249.283 22832003.438 10 0 60929 67500.00000 0 6145920.880 -11313676.242 22044106.701 10 0 60929 68400.00000 0 8722777.793 -11892356.201 20829141.025 10 0 60929 69300.00000 0 11082225.749 -12615744.261 19210308.830 10 0 60929 70200.00000 0 13172233.231 -13440696.627 17218673.698 10 0 60929 71100.00000 0 14950943.954 -14316330.159 14892587.762 10 0 60929 72000.00000 0 16388200.916 -15186230.859 12276973.813 10 0 60929 72900.00000 0 17466591.662 -15990920.073 9422473.715 10 0 60929 73800.00000 0 18181969.247 -16670475.310 6384477.838 10 0 60929 74700.00000 0 18543425.190 -17167194.887 3222053.216 10 0 60929 75600.00000 0 18572713.792 -17428192.637 -3209.042 10 0 60929 76500.00000 0 18303150.783 -17407810.853 -3228404.272 10 0 60929 77400.00000 0 17778032.125 -17069746.563 -6390557.821 10 0 60929 78300.00000 0 17048639.910 -16388797.951 -9427875.594 10 0 60929 79200.00000 0 16171920.673 -15352153.745 -12280974.919 10 0 60929 80100.00000 0 15207936.047 -13960168.019 -14894069.157 10 0 60929 81000.00000 0 14217195.906 -12226585.221 -17216080.455 10 0 60929 81900.00000 0 13257989.340 -10178204.166 -19201656.741 10 0 60929 82800.00000 0 12383828.900 -7853994.273 -20812071.267 10 0 60929 83700.00000 0 11641118.265 -5303701.165 -22015985.978 10 0 60929 84600.00000 0 11067143.467 -2586000.761 -22790063.242 10 0 60929 85500.00000 0 10688473.277 233719.587 -23119414.110 10 0 60930 0.00000 0 10519836.155 3085858.439 -22997875.071 10 0 60930 900.00000 0 10563520.184 5899271.986 -22428108.974 10 0 60930 1800.00000 0 10809319.768 8604003.734 -21421529.966 10 0 60930 2700.00000 0 11235028.855 11133962.942 -19998055.503 10 0 60930 3600.00000 0 11807457.644 13429436.601 -18185692.220 10 0 60930 4500.00000 0 12483927.211 15439332.752 -16019965.639 10 0 60930 5400.00000 0 13214176.736 17123063.190 -13543206.549 10 0 60930 6300.00000 0 13942600.973 18451989.538 -10803709.480 10 0 60930 7200.00000 0 14610722.264 19410375.333 -7854780.883 10 0 60930 8100.00000 0 15159792.192 19995807.723 -4753696.448 10 0 60930 9000.00000 0 15533413.207 20219074.557 -1560588.266 10 0 60930 9900.00000 0 15680070.393 20103505.192 1662716.387 10 0 60930 10800.00000 0 15555467.843 19683805.359 4853882.500 10 0 60930 11700.00000 0 15124572.831 19004436.984 7951258.773 10 0 60930 12600.00000 0 14363283.320 18117612.101 10895051.105 10 0 60930 13500.00000 0 13259650.219 17080985.363 13628456.980 10 0 60930 14400.00000 0 11814604.108 15955141.382 16098740.602 10 0 60930 15300.00000 0 10042156.423 14800981.013 18258229.929 10 0 60930 16200.00000 0 7969066.372 13677114.364 20065218.356 10 0 60930 17100.00000 0 5633986.276 12637367.646 21484755.505 10 0 60930 18000.00000 0 3086119.060 11728506.249 22489313.393 10 0 60930 18900.00000 0 383441.049 10988267.536 23059316.273 10 0 60930 19800.00000 0 -2409439.238 10443784.462 23183524.497 10 0 60930 20700.00000 0 -5223700.769 10110465.461 22859264.873 10 0 60930 21600.00000 0 -7988911.151 9991377.783 22092502.291 10 0 60930 22500.00000 0 -10635704.351 10077161.203 20897749.797 10 0 60930 23400.00000 0 -13098426.224 10346477.530 19297816.807 10 0 60930 24300.00000 0 -15317639.580 10766979.342 17323397.923 10 0 60930 25200.00000 0 -17242385.286 11296759.755 15012507.628 10 0 60930 26100.00000 0 -18832104.914 11886224.600 12409769.229 10 0 60930 27000.00000 0 -20058143.665 12480310.101 9565569.477 10 0 60930 27900.00000 0 -20904768.976 13020953.711 6535093.372 10 0 60930 28800.00000 0 -21369660.112 13449714.042 3377256.783 10 0 60930 29700.00000 0 -21463846.090 13710428.391 153557.204 10 0 60930 30600.00000 0 -21211092.805 13751793.733 -3073134.585 10 0 60930 31500.00000 0 -20646763.938 13529759.345 -6239817.169 10 0 60930 32400.00000 0 -19816203.308 13009626.708 -9284609.420 10 0 60930 33300.00000 0 -18772707.338 12167764.386 -12147983.028 10 0 60930 34200.00000 0 -17575174.559 10992862.086 -14773950.013 10 0 60930 35100.00000 0 -16285533.359 9486668.009 -17111179.580 10 0 60930 36000.00000 0 -14966058.985 7664176.091 -19114020.284 10 0 60930 36900.00000 0 -13676695.577 5553253.828 -20743405.706 10 0 60930 37800.00000 0 -12472498.544 3193725.720 -21967624.770 10 0 60930 38700.00000 0 -11401306.946 635951.006 -22762941.076 10 0 60930 39600.00000 0 -10501745.085 -2061043.839 -23114049.219 10 0 60930 40500.00000 0 -9801637.717 -4831798.436 -23014359.880 10 0 60930 41400.00000 0 -9316904.876 -7606922.968 -22466109.314 10 0 60930 42300.00000 0 -9050981.334 -10315767.922 -21480292.627 10 0 60930 43200.00000 0 -8994782.838 -12889146.893 -20076423.991 10 0 60930 44100.00000 0 -9127217.830 -15261998.644 -18282130.334 10 0 60930 45000.00000 0 -9416220.144 -17375877.865 -16132588.334 10 0 60930 45900.00000 0 -9820256.314 -19181171.970 -13669817.434 10 0 60930 46800.00000 0 -10290241.377 -20638953.419 -10941844.169 10 0 60930 47700.00000 0 -10771780.402 -21722392.766 -8001755.318 10 0 60930 48600.00000 0 -11207639.825 -22417676.386 -4906659.211 10 0 60930 49500.00000 0 -11540343.743 -22724393.707 -1716575.855 10 0 60930 50400.00000 0 -11714785.784 -22655380.844 1506722.413 10 0 60930 51300.00000 0 -11680747.136 -22236029.998 4700897.600 10 0 60930 52200.00000 0 -11395215.853 -21503095.779 7804237.815 10 0 60930 53100.00000 0 -10824411.223 -20503050.001 10756832.138 10 0 60930 54000.00000 0 -9945429.526 -19290054.570 13501707.378 10 0 60930 54900.00000 0 -8747443.253 -17923637.180 15985906.548 10 0 60930 55800.00000 0 -7232404.200 -16466166.197 18161490.108 10 0 60930 56700.00000 0 -5415221.038 -14980228.773 19986442.658 10 0 60930 57600.00000 0 -3323403.130 -13526019.794 21425469.448 10 0 60930 58500.00000 0 -996183.863 -12158848.595 22450668.886 10 0 60930 59400.00000 0 1516842.386 -10926865.495 23042069.253 10 0 60930 60300.00000 0 4157515.996 -9869101.361 23188019.849 10 0 60930 61200.00000 0 6861269.308 -9013900.959 22885428.955 10 0 60930 62100.00000 0 9559559.222 -8377815.121 22139843.276 10 0 60930 63000.00000 0 12182477.539 -7964998.438 20965365.882 10 0 60930 63900.00000 0 14661433.372 -7767138.806 19384412.273 10 0 60930 64800.00000 0 16931798.262 -7763923.527 17427306.823 10 0 60930 65700.00000 0 18935405.071 -7924024.505 15131724.795 10 0 60930 66600.00000 0 20622796.678 -8206563.304 12541988.104 10 0 60930 67500.00000 0 21955129.824 -8562996.376 9708226.111 10 0 60930 68400.00000 0 22905652.978 -8939342.341 6685415.841 10 0 60930 69300.00000 0 23460694.148 -9278657.921 3532319.072 10 0 60930 70200.00000 0 23620114.905 -9523657.533 310336.525 10 0 60930 71100.00000 0 23397209.330 -9619364.412 -2917698.203 10 0 60930 72000.00000 0 22818050.343 -9515678.811 -6088760.244 10 0 60930 72900.00000 0 21920309.928 -9169751.647 -9140884.639 10 0 60930 73800.00000 0 20751602.730 -8548059.780 -12014400.408 10 0 60930 74700.00000 0 19367423.572 -7628091.667 -14653120.900 10 0 60930 75600.00000 0 17828767.338 -6399568.968 -17005464.687 10 0 60930 76500.00000 0 16199533.628 -4865149.816 -19025482.891 10 0 60930 77400.00000 0 14543827.973 -3040582.155 -20673770.985 10 0 60930 78300.00000 0 12923275.659 -954299.582 -21918246.060 10 0 60930 79200.00000 0 11394463.229 1353523.609 -22734773.753 10 0 60930 80100.00000 0 10006616.763 3832418.073 -23107632.638 10 0 60930 81000.00000 0 8799615.094 6423504.137 -23029807.680 10 0 60930 81900.00000 0 7802421.104 9061735.495 -22503108.198 10 0 60930 82800.00000 0 7031995.742 11678406.665 -21538109.569 10 0 60930 83700.00000 0 6492738.243 14203818.402 -20153921.636 10 0 60930 84600.00000 0 6176473.285 16569989.145 -18377790.224 10 0 60930 85500.00000 0 6062982.480 18713299.223 -16244541.430 99